Location: Wiesbaden
(50.0830°N, 8.2500°E)
Time: 05:50:37
(UTC+01:00)

ISS - Pass Details

Date: 06 December 2019
Orbit: 411 x 421 km, 51.6° (Epoch: 15 December)

Event Time Altitude Azimuth Distance (km) Brightness Sun altitude
Rises 18:23:33 0° 287° (WNW) 2,361 1.1 -17.9°
Reaches altitude 10° 18:25:39 10° 284° (WNW) 1,497 0.0 -18.3°
Maximum altitude 18:28:58 59° 204° (SSW) 488 -3.3 -18.8°
Enters shadow 18:29:48 43° 148° (SSE) 604 -3.2 -18.9°
